[[{"header":{"parameterUnit":"m.s-1","parameterCategory":1,"la1":30.2991,"la2":30.254,"lo1":-89.0895,"lo2":-89.0444,"dy":0.0017,"dx":0.0017,"nx":28,"ny":28,"refTime":"2024-06-14T03:00:00:Z","depth":0,"parameterNumber":2,"parameterNumberName":"U-component_of_WINDS"},"data":[0,0,0,0,0,0,0,0,0,0,0,0,0,0,0,0,0,0,0,0,0,0,0,0,0,0,0,0,0,0,0,0,0,0,0,0,0,0,0,0,0,0,0,0,0,0,0,0,0,0,0,0,0,0,0,0,0,0,0.0043,0.0043,0,0.0049,0.0049,0.0049,0.0063,0.0064,0.0064,0.0064,0.007,0.007,0.007,0,0,0,0,0,0,0,0,0,0,0,0,0,0.0044,0.0044,0.0043,0.0043,0.0043,0.0049,0.0049,0.0049,0.0063,0.0064,0.0064,0.0064,0.007,0.007,0.007,0,0,0,0,0,0,0,0,0,0,0,0,0,0.0046,0.0044,0.0043,0.0051,0.0052,0.0049,0.0049,0.0049,0.0063,0.0064,0.0064,0.0064,0.007,0.007,0.007,0.006,0,0,0.0069,0.0069,0,0,0,0,0,0,0,0,0.0046,0.0046,0.005,0.0051,0.0051,0.0056,0.0052,0.0053,0.0063,0.0059,0.0064,0.0065,0.0065,0.0065,0.0065,0.006,0.006,0.0069,0.0069,0.0069,0.0069,0,0,0,0,0,0,0,0.0046,0.0046,0.0046,0.005,0.0051,0.0054,0.0055,0.0052,0.0059,0.0059,0.006,0.0061,0.0065,0.0065,0.0066,0.006,0.0069,0.0069,0.0069,0.0069,0.0048,0.0047,0,0,0,0,0,0,0.0045,0.0046,0.0045,0.0046,0.005,0.0054,0.0055,0.0054,0.0059,0.0061,0.006,0.0061,0.0066,0.0066,0.0066,0.0055,0.0069,0.0069,0.0069,0.0048,0.0048,0.0047,0,0,0,0,0,0,0.0044,0.0044,0.0045,0.0046,0.0046,0.0053,0.0052,0.0054,0.0054,0.006,0.0062,0.0059,0.0066,0.0066,0.0061,0.0055,0.0069,0.0068,0.0049,0.0048,0.0047,0.0032,0,0,0,0,0,0,0.0044,0.0044,0.004,0.0046,0.0046,0.004,0.0052,0.0054,0.0054,0.0055,0.0059,0.0061,0.0066,0.0061,0.0061,0.0055,0.0068,0.0049,0.0048,0.0048,0.0033,0.0031,0.0029,0,0,0,0,0,0.0044,0.0036,0.004,0.004,0.0042,0.004,0.004,0.0047,0.0053,0.0049,0.0054,0.006,0.0056,0.0061,0.0061,0.0054,0.005,0.0049,0.0048,0.0034,0.0032,0.0029,0,0,0,0,0,0,0.0029,0.0037,0.0042,0.0034,0.0037,0.0042,0.0038,0.0044,0.0044,0.0046,0.0054,0.0055,0.0049,0.0051,0.0057,0.0045,0.0054,0.0053,0.0044,0.0041,0.0039,0.0039,0.0068,0,0,0,0,0,0.0025,0.0023,0.003,0.0023,0.0024,0.0031,0.003,0.0035,0.0038,0.0039,0.0042,0.0044,0.0044,0.0043,0.0042,0.0034,0.0035,0.003,0.0028,0.0026,0.0025,0.0021,0.0019,0.0044,0.0044,0.0044,0,0,0.0016,0.002,0.0018,0.002,0.0022,0.002,0.0031,0.0028,0.0027,0.0038,0.0034,0.0037,0.004,0.0033,0.0031,0.0035,0.0018,0.0025,0.0023,0.0023,0.002,0.0017,0.0015,0.0043,0.0043,0.0043,0,0,-0.0001,0.0002,-0.0003,-0.0001,0.0002,0.0007,0.0006,0.0011,0.0013,0.0009,0.0018,0.0016,0.0015,0.0016,0.0017,0.0002,0.0008,0.0001,-0.0009,-0.0013,-0.0015,-0.0017,-0.0023,-0.0025,0.0,0.0,0.0,0,-0.0012,-0.0015,-0.0007,-0.001,-0.001,0.0001,-0.0004,-0.0003,0.0,0.0,0.0006,0.0004,0.0007,0.0001,-0.0003,-0.0003,-0.0004,0.0001,-0.0016,-0.0017,-0.0019,-0.0024,-0.0026,-0.0001,-0.0001,-0.0,-0.0,0,-0.0029,-0.0031,-0.0036,-0.0033,-0.0033,-0.0037,-0.003,-0.0031,-0.0025,-0.0021,-0.0025,-0.0021,-0.0021,-0.0021,-0.0016,-0.0026,-0.0024,-0.0017,-0.0009,-0.0022,-0.0027,-0.0029,-0.0002,-0.0002,-0.0001,-0.0001,0,0,-0.0056,-0.0048,-0.005,-0.0048,-0.0044,-0.0045,-0.0049,-0.0048,-0.0049,-0.0047,-0.005,-0.0051,-0.0045,-0.0044,-0.0039,-0.0042,-0.0054,-0.0035,-0.0035,-0.0039,-0.0065,-0.0071,-0.0073,-0.005,-0.005,-0.005,-0.0066,0,-0.0072,-0.0078,-0.0071,-0.0078,-0.008,-0.0069,-0.0072,-0.007,-0.0066,-0.0066,-0.0062,-0.0063,-0.0055,-0.0054,-0.0057,-0.0052,-0.006,-0.0051,-0.0053,-0.0053,-0.0054,-0.0075,-0.0081,-0.0096,-0.0067,-0.0068,-0.0068,0,-0.0092,-0.0091,-0.0099,-0.0093,-0.0093,-0.0096,-0.0095,-0.0095,-0.0092,-0.0089,-0.0087,-0.0081,-0.0084,-0.0074,-0.0078,-0.0073,-0.0073,-0.0071,-0.0071,-0.0071,-0.0062,-0.0077,-0.01,-0.0102,-0.0071,-0.0071,-0.007,0,-0.0112,-0.0112,-0.0116,-0.0115,-0.0108,-0.0111,-0.0108,-0.0104,-0.0104,-0.0102,-0.0102,-0.0101,-0.0101,-0.01,-0.0093,-0.0087,-0.0098,-0.0088,-0.0095,-0.0095,-0.0099,-0.0099,-0.0123,-0.0098,-0.0098,-0.0098,-0.0098,0,-0.0131,-0.0136,-0.0125,-0.0128,-0.0133,-0.0124,-0.013,-0.0126,-0.0122,-0.0124,-0.0115,-0.0117,-0.0107,-0.0108,-0.0102,-0.0106,-0.0106,-0.0103,-0.0102,-0.0105,-0.0105,-0.0105,-0.0104,-0.0098,-0.0098,-0.0098,-0.0098,0,-0.0154,-0.0146,-0.0151,-0.0144,-0.0142,-0.0146,-0.014,-0.0143,-0.0137,-0.014,-0.014,-0.0132,-0.0132,-0.0125,-0.0124,-0.012,-0.0127,-0.0124,-0.0128,-0.0127,-0.0135,-0.0135,-0.016,-0.0163,-0.0136,-0.0136,-0.0137,0,-0.0167,-0.017,-0.0164,-0.0164,-0.0162,-0.0163,-0.0162,-0.0153,-0.0153,-0.0149,-0.0152,-0.0152,-0.0151,-0.0152,-0.0146,-0.0145,-0.0142,-0.0151,-0.0142,-0.0144,-0.0143,-0.0143,-0.0143,-0.0153,-0.0154,-0.0154,-0.0154,0,-0.0191,-0.0187,-0.0187,-0.0185,-0.0185,-0.0183,-0.0181,-0.0182,-0.0172,-0.0172,-0.0173,-0.0172,-0.0171,-0.017,-0.0168,-0.0165,-0.0158,-0.0157,-0.0158,-0.0162,-0.0164,-0.0163,-0.0134,-0.0157,-0.0156,-0.0156,-0.0156,-0.0156,-0.0209,-0.0212,-0.0208,-0.0208,-0.0205,-0.0203,-0.0205,-0.0199,-0.0199,-0.0198,-0.0192,-0.0193,-0.0189,-0.0185,-0.0183,-0.0184,-0.0179,-0.0182,-0.0182,-0.0183,-0.0185,-0.0164,-0.0183,-0.0183,-0.0183,-0.0183,-0.0183,0,-0.0233,-0.0229,-0.0229,-0.0226,-0.0226,-0.0219,-0.0216,-0.0217,-0.0218,-0.0214,-0.0214,-0.0214,-0.0213,-0.0207,-0.0206,-0.0207,-0.0204,-0.0207,-0.0207,-0.0207,-0.0189,-0.0187,-0.021,-0.021,-0.021,-0.021,-0.021,-0.021,-0.0245,-0.025,-0.0245,-0.0248,-0.0244,-0.0245,-0.0244,-0.0242,-0.0239,-0.0239,-0.0239,-0.0235,-0.023,-0.0228,-0.0227,-0.0225,-0.0226,-0.023,-0.0227,-0.0211,-0.0208,-0.0206,-0.0205,-0.023,-0.023,-0.0246,-0.0246,-0.0246]},{"header":{"parameterUnit":"m.s-1","parameterCategory":1,"la1":30.2991,"la2":30.254,"lo1":-89.0895,"lo2":-89.0444,"dy":0.0017,"dx":0.0017,"nx":28,"ny":28,"refTime":"2024-06-14T03:00:00:Z","depth":0,"parameterNumber":3,"parameterNumberName":"V-component_of_WINDS"},"data":[0,0,0,0,0,0,0,0,0,0,0,0,0,0,0,0,0,0,0,0,0,0,0,0,0,0,0,0,0,0,0,0,0,0,0,0,0,0,0,0,0,0,0,0,0,0,0,0,0,0,0,0,0,0,0,0,0,0,-1.2847,-1.2847,0,-1.2835,-1.2835,-1.2835,-1.281,-1.2809,-1.2809,-1.2808,-1.2796,-1.2797,-1.2797,0,0,0,0,0,0,0,0,0,0,0,0,0,-1.2847,-1.2847,-1.2847,-1.2847,-1.2847,-1.2835,-1.2835,-1.2835,-1.281,-1.2809,-1.2809,-1.2808,-1.2796,-1.2797,-1.2797,0,0,0,0,0,0,0,0,0,0,0,0,0,-1.2843,-1.2847,-1.2847,-1.2833,-1.2831,-1.2835,-1.2835,-1.2835,-1.281,-1.2809,-1.2808,-1.2808,-1.2796,-1.2797,-1.2797,-1.2814,0,0,-1.2798,-1.2798,0,0,0,0,0,0,0,0,-1.2843,-1.2843,-1.2835,-1.2834,-1.2832,-1.2823,-1.2831,-1.2828,-1.281,-1.2818,-1.2808,-1.2807,-1.2806,-1.2805,-1.2805,-1.2813,-1.2813,-1.2798,-1.2798,-1.2798,-1.2798,0,0,0,0,0,0,0,-1.2843,-1.2843,-1.2842,-1.2835,-1.2833,-1.2827,-1.2825,-1.283,-1.2817,-1.2817,-1.2815,-1.2814,-1.2805,-1.2805,-1.2804,-1.2813,-1.2798,-1.2798,-1.2798,-1.2798,-1.2833,-1.2834,0,0,0,0,0,0,-1.2846,-1.2843,-1.2843,-1.2842,-1.2836,-1.2827,-1.2826,-1.2827,-1.2816,-1.2814,-1.2815,-1.2813,-1.2805,-1.2804,-1.2804,-1.2822,-1.2798,-1.2798,-1.2798,-1.2833,-1.2834,-1.2834,0,0,0,0,0,0,-1.2846,-1.2846,-1.2843,-1.2842,-1.2841,-1.2828,-1.283,-1.2827,-1.2827,-1.2815,-1.2812,-1.2817,-1.2804,-1.2804,-1.2811,-1.2822,-1.2798,-1.2799,-1.2832,-1.2833,-1.2834,-1.286,0,0,0,0,0,0,-1.2846,-1.2846,-1.2852,-1.2842,-1.2841,-1.2851,-1.283,-1.2827,-1.2827,-1.2825,-1.2816,-1.2814,-1.2803,-1.2811,-1.2812,-1.2821,-1.2799,-1.2831,-1.2832,-1.2834,-1.2858,-1.2862,-1.2865,0,0,0,0,0,-1.2846,-1.286,-1.2853,-1.2853,-1.2849,-1.2851,-1.2851,-1.2838,-1.2828,-1.2834,-1.2826,-1.2814,-1.2821,-1.2812,-1.2812,-1.2823,-1.283,-1.2832,-1.2833,-1.2856,-1.2861,-1.2865,0,0,0,0,0,0,-1.2872,-1.2859,-1.285,-1.2862,-1.2858,-1.2847,-1.2855,-1.2844,-1.2843,-1.2841,-1.2825,-1.2824,-1.2833,-1.2829,-1.282,-1.2838,-1.2823,-1.2825,-1.284,-1.2845,-1.2848,-1.2849,-1.2799,0,0,0,0,0,-1.2879,-1.2882,-1.287,-1.2882,-1.288,-1.2868,-1.2868,-1.2859,-1.2854,-1.2853,-1.2846,-1.2842,-1.2842,-1.2843,-1.2844,-1.2857,-1.2855,-1.2864,-1.2868,-1.2871,-1.2872,-1.2878,-1.2882,-1.284,-1.284,-1.284,0,0,-1.2894,-1.2887,-1.289,-1.2887,-1.2883,-1.2886,-1.2867,-1.2871,-1.2873,-1.2853,-1.286,-1.2855,-1.2849,-1.286,-1.2864,-1.2856,-1.2884,-1.2873,-1.2876,-1.2875,-1.2881,-1.2885,-1.2888,-1.2841,-1.2841,-1.2841,0,0,-1.2922,-1.2917,-1.2926,-1.2922,-1.2916,-1.2907,-1.291,-1.29,-1.2896,-1.2902,-1.2887,-1.289,-1.2892,-1.2888,-1.2887,-1.2913,-1.2902,-1.2914,-1.2932,-1.2938,-1.2941,-1.2944,-1.2952,-1.2956,-1.2916,-1.2916,-1.2916,0,-1.2941,-1.2945,-1.2932,-1.2937,-1.2935,-1.2918,-1.2926,-1.2923,-1.2917,-1.2917,-1.2908,-1.291,-1.2906,-1.2914,-1.2921,-1.292,-1.2922,-1.2914,-1.2942,-1.2944,-1.2947,-1.2955,-1.2958,-1.2917,-1.2917,-1.2917,-1.2917,0,-1.2968,-1.2971,-1.2979,-1.2973,-1.2973,-1.298,-1.2967,-1.2969,-1.296,-1.2952,-1.2959,-1.2952,-1.295,-1.2952,-1.2943,-1.296,-1.2955,-1.2944,-1.2929,-1.2952,-1.296,-1.2963,-1.2919,-1.2919,-1.2918,-1.2918,0,0,-1.3012,-1.2999,-1.3002,-1.2999,-1.299,-1.2993,-1.2998,-1.2997,-1.2998,-1.2995,-1.2999,-1.3001,-1.2991,-1.2989,-1.298,-1.2985,-1.3005,-1.2974,-1.2973,-1.2979,-1.3022,-1.3029,-1.3033,-1.2998,-1.2998,-1.2999,-1.3022,0,-1.3037,-1.3046,-1.3034,-1.3046,-1.3048,-1.3031,-1.3036,-1.3031,-1.3025,-1.3025,-1.3018,-1.3019,-1.3006,-1.3005,-1.301,-1.3002,-1.3014,-1.3,-1.3001,-1.3001,-1.3002,-1.3037,-1.3045,-1.3067,-1.3025,-1.3025,-1.3026,0,-1.3068,-1.3066,-1.3078,-1.3068,-1.3068,-1.3073,-1.307,-1.3071,-1.3066,-1.306,-1.3058,-1.3047,-1.3052,-1.3038,-1.3044,-1.3035,-1.3034,-1.3031,-1.3031,-1.303,-1.3014,-1.3036,-1.3074,-1.3077,-1.303,-1.303,-1.3029,0,-1.3098,-1.3098,-1.3104,-1.3103,-1.3092,-1.3095,-1.3091,-1.3085,-1.3084,-1.3082,-1.3081,-1.3079,-1.3078,-1.3077,-1.3066,-1.3056,-1.3073,-1.3058,-1.3068,-1.3068,-1.3071,-1.3071,-1.3109,-1.3073,-1.3073,-1.3073,-1.3073,0,-1.3127,-1.3135,-1.3117,-1.3122,-1.3129,-1.3116,-1.3124,-1.3118,-1.3112,-1.3114,-1.31,-1.3103,-1.3088,-1.3089,-1.308,-1.3086,-1.3086,-1.3081,-1.3078,-1.3082,-1.3082,-1.3081,-1.3079,-1.3074,-1.3073,-1.3073,-1.3073,0,-1.3161,-1.315,-1.3156,-1.3145,-1.3143,-1.3149,-1.314,-1.3143,-1.3135,-1.3138,-1.3138,-1.3126,-1.3126,-1.3115,-1.3113,-1.3107,-1.3116,-1.3112,-1.3118,-1.3116,-1.3127,-1.3126,-1.3164,-1.3168,-1.3131,-1.3131,-1.3131,0,-1.318,-1.3185,-1.3175,-1.3175,-1.3172,-1.3173,-1.3172,-1.3159,-1.3158,-1.3152,-1.3156,-1.3155,-1.3154,-1.3155,-1.3146,-1.3144,-1.3138,-1.3152,-1.3138,-1.3141,-1.3138,-1.3137,-1.3137,-1.3155,-1.3155,-1.3156,-1.3156,0,-1.3214,-1.3209,-1.3208,-1.3205,-1.3205,-1.3202,-1.3198,-1.32,-1.3185,-1.3186,-1.3185,-1.3184,-1.3182,-1.3181,-1.3178,-1.3173,-1.3162,-1.3161,-1.3163,-1.3166,-1.3169,-1.3166,-1.3125,-1.316,-1.3159,-1.3159,-1.3159,-1.3159,-1.3241,-1.3244,-1.3237,-1.3237,-1.3233,-1.323,-1.3232,-1.3224,-1.3224,-1.3221,-1.3213,-1.3214,-1.3208,-1.3202,-1.3199,-1.3199,-1.3193,-1.3196,-1.3197,-1.3197,-1.3199,-1.317,-1.3199,-1.3199,-1.3199,-1.3199,-1.3198,0,-1.3274,-1.3268,-1.3268,-1.3263,-1.3263,-1.3252,-1.3248,-1.3248,-1.3249,-1.3244,-1.3243,-1.3243,-1.3242,-1.3233,-1.323,-1.3232,-1.3227,-1.3232,-1.3232,-1.3231,-1.3206,-1.3204,-1.3236,-1.3236,-1.3236,-1.3236,-1.3236,-1.3236,-1.329,-1.3296,-1.3289,-1.3292,-1.3287,-1.3287,-1.3286,-1.3282,-1.3278,-1.3279,-1.3278,-1.3272,-1.3265,-1.3262,-1.326,-1.3258,-1.3257,-1.3264,-1.3259,-1.3236,-1.3232,-1.3229,-1.3227,-1.3264,-1.3264,-1.3284,-1.3284,-1.3284]}]]